This demonstration page uses our WeatherBlox Daily Observations layout. Learn more.

Left ArrowRight Arrow

41.86663, -103.66717

Hourly Observations for April 25, 2017

Temp ( °F °C ) Dew Point ( °F °C ) Humidity (%) Winds ( mph kmh ) Pressure ( in mb ) Visibility ( mi km ) Precip ( " mm )
12:07 am 00:07 Cloudy with Rain 45 7.2 43 6.1 93 93 W 16 26 29.59 1002 3 4.82802 0.14 3.556
12:32 am 00:32 Cloudy with Rain 45 7 43 6 93 93 WNW 10 17 29.59 1002 5 8.0467 N/A
12:53 am 00:53 Cloudy with Rain 45 7.2 43 6.1 93 93 W 5 7 29.53 1000 4 6.43736 0.27 6.858
1:53 am 01:53 Cloudy with Light Rain 46 7.8 43 6.1 89 89 E 12 19 29.49 999 10 16.0934 0.13 3.302
2:53 am 02:53 Cloudy 46 7.8 43 6.1 89 89 S 5 7 29.44 997 10 16.0934 N/A
3:53 am 03:53 Clear 45 7.2 42 5.6 90 90 N N/A 29.42 996 10 16.0934 N/A
4:53 am 04:53 Clear 45 7.2 42 5.6 90 90 SE 5 7 29.47 998 10 16.0934 N/A
5:53 am 05:53 Clear 46 7.8 41 5 83 83 SSE 6 9 29.48 998 10 16.0934 N/A
6:53 am 06:53 Sunny 44 6.7 40 4.4 85 85 E 5 7 29.5 999 10 16.0934 N/A
7:53 am 07:53 Mostly Cloudy 50 10 38 3.3 63 63 N N/A 29.49 999 10 16.0934 N/A
8:53 am 08:53 Mostly Cloudy 50 10 38 3.3 63 63 WNW 10 17 29.5 999 10 16.0934 N/A
9:53 am 09:53 Sunny 54 12.2 39 3.9 57 57 NNW 13 20 29.48 998 10 16.0934 N/A
10:53 am 10:53 Cloudy 50 10 42 5.6 74 74 NNE 23 37 29.53 1000 10 16.0934 N/A
11:01 am 11:01 Cloudy 49 9.4 42 5.6 77 77 NE 23 37 29.53 1000 10 16.0934 N/A
11:41 am 11:41 Cloudy 47 8.3 40 4.4 77 77 NE 21 33 29.56 1001 10 16.0934 N/A
11:50 am 11:50 Cloudy 46 8 39 4 76 76 NE 23 37 29.56 1001 10 16.0934 N/A
11:53 am 11:53 Cloudy 46 7.8 40 4.4 79 79 NE 25 41 29.57 1001 10 16.0934 N/A
12:53 pm 12:53 Cloudy 46 7.8 38 3.3 73 73 NE 21 33 29.6 1002 10 16.0934 N/A
1:33 pm 13:33 Cloudy 42 5.6 36 2.2 79 79 NE 17 28 29.68 1005 10 16.0934 N/A
1:53 pm 13:53 Cloudy with Light Rain 42 5.6 37 2.8 82 82 NE 17 28 29.64 1004 10 16.0934 N/A
2:53 pm 14:53 Cloudy 42 5.6 35 1.7 76 76 NE 17 28 29.66 1004 10 16.0934 N/A
3:53 pm 15:53 Cloudy 42 5.6 34 1.1 73 73 NNE 15 24 29.67 1005 10 16.0934 N/A
4:20 pm 16:20 Cloudy 43 6 34 1 71 71 NNE 17 28 29.71 1006 10 16.0934 N/A
4:53 pm 16:53 Cloudy 43 6.1 34 1.1 71 71 N 18 30 29.7 1006 10 16.0934 N/A
5:53 pm 17:53 Cloudy 39 3.9 30 -1.1 70 70 NE 18 30 29.73 1007 10 16.0934 N/A
6:12 pm 18:12 Cloudy 37 3 30 -1 75 75 NNE 17 28 29.8 1009 10 16.0934 N/A
6:53 pm 18:53 Cloudy 36 2.2 29 -1.7 76 76 NNE 17 28 29.78 1008 10 16.0934 N/A
7:53 pm 19:53 Cloudy 33 0.6 27 -2.8 78 78 NE 21 33 29.81 1009 10 16.0934 N/A
8:10 pm 20:10 Cloudy 34 1 27 -3 75 75 NNE 20 31 29.91 1013 10 16.0934 N/A
8:51 pm 20:51 Cloudy 32 undefined 27 -3 80 80 N 15 24 29.97 1015 10 16.0934 N/A
8:53 pm 20:53 Cloudy 32 undefined 25 -3.9 75 75 N 14 22 29.87 1012 10 16.0934 N/A
9:15 pm 21:15 Cloudy 32 undefined 25 -3.9 75 75 NNW 13 20 30 1016 10 16.0934 N/A
9:53 pm 21:53 Cloudy 32 undefined 24 -4.4 73 73 N 9 15 29.89 1012 10 16.0934 N/A
10:06 pm 22:06 Cloudy 32 undefined 25 -4 75 75 N 8 13 30 1016 10 16.0934 N/A
10:53 pm 22:53 Cloudy 32 undefined 25 -3.9 75 75 NNE 8 13 29.89 1012 10 16.0934 N/A
11:13 pm 23:13 Cloudy 31 -0.6 25 -3.9 79 79 NNW 6 9 30 1016 10 16.0934 N/A
11:44 pm 23:44 Cloudy 32 undefined 27 -3 80 80 WNW 6 9 30 1016 10 16.0934 N/A
11:53 pm 23:53 Cloudy 32 undefined 25 -3.9 75 75 WNW 5 7 29.89 1012 10 16.0934 N/A

Powered by AerisWeather